Content
SEND FEEDBACK

Daily
Averages
Monthly
Summary
United States of America

ST. LOUIS - MEMORIAL PLAZA, MISSOURI


Home > North America > United States > Missouri
Elevation: 620 feet     Latitude: 38 38N     Longitude: 090 12W

WEATHER
 
SELECT A DAY
Number of Records: 186,374;   Date Range: 1/1/95 - 9/13/14
 
SHARE

PRINT THIS DATA

[ ← Previous Day ]
WEATHER ALMANAC - APRIL 18, 2013
[ Next Day → ]
[ °C ]   °F
Weather ElementAverageHighLow
Temperature63.7 °F75 °F (1:53 am)46.4 °F (6:53 pm)
Dewpoint59.6 °F66.2 °F (6:30 am)37.4 °F (8:52 pm)
Humidity87.1 %96 % (10:53 am)69 % (1:53 am)
Barometer29.65 in29.75 in (8:52 pm)29.58 in (4:53 am)
Wind Speed10.5 mph21.9 mph (7:14 am)
Wind Gust32.2 mph (4:53 am)
Weather ElementAverage
Visibility5 mi
Wind DirectionSSW (186.8 °)

Weather ElementTotal
Precipitation3.90 in
Heating Degree Days4.3 (Base 65)
Growing Degree Days10.7 (Base 50)
Averaged from 34 records on April 18, 2013
WEATHER CONDITIONS BREAKOUT
WIND DIRECTION BREAKOUT
WEATHER BY HOUR - APRIL 18, 2013
[ °C ]   °F
Local TimeTemperatureDewpointHumidityBarometerVisibilityWind DirectionWind SpeedGust SpeedPrecipitationEventsConditions
1:53 AM75.0 °F64.0 °F69 %29.65 in10.0 miSouth (170°)15.0 mph26.5 mphPartly Cloudy
2:53 AM75.0 °F64.0 °F69 %29.62 in10.0 miSouth (170°)16.1 mph21.9 mphMostly Cloudy
3:53 AM75.0 °F64.9 °F71 %29.59 in10.0 miSouth (180°)12.7 mph25.3 mphClear
4:53 AM75.0 °F64.0 °F69 %29.58 in10.0 miSouth (190°)18.4 mph32.2 mphClear
5:53 AM75.0 °F64.0 °F69 %29.58 in10.0 miSSW (200°)16.1 mph23.0 mph0.00 inRainLight Rain
6:00 AM73.4 °F64.4 °F73 %29.61 in10.0 miSSW (210°)12.7 mph23.0 mph0.00 inRain-ThunderstormLight Rain
6:30 AM71.6 °F66.2 °F83 %29.60 in2.5 miSouth (180°)13.8 mph24.2 mph0.14 inRain-ThunderstormLight Thunderstorms and Rain
6:53 AM72.0 °F66.0 °F81 %29.60 in5.0 miSSW (200°)10.4 mph23.0 mph0.24 inRain-ThunderstormLight Thunderstorms and Rain
7:14 AM66.2 °F62.6 °F88 %29.68 in1.5 miWest (280°)21.9 mph32.2 mph0.24 inRain-ThunderstormThunderstorms and Rain
7:21 AM62.6 °F60.8 °F94 %29.69 in1.5 miWest (280°)11.5 mph32.2 mph0.51 inRain-ThunderstormHeavy Thunderstorms and Rain
7:53 AM63.0 °F61.0 °F93 %29.66 in2.5 miSouth (170°)5.8 mph0.91 inRain-ThunderstormHeavy Thunderstorms and Rain
8:17 AM62.6 °F60.8 °F94 %29.67 in2.5 miSSE (150°)4.6 mph0.04 inRainLight Rain
8:53 AM63.0 °F61.0 °F93 %29.66 in2.5 miSE (130°)5.8 mph0.09 inRain-ThunderstormLight Rain
9:00 AM62.6 °F60.8 °F94 %29.67 in6.0 miSSE (150°)4.6 mph0.01 inRain-ThunderstormRain
9:18 AM62.6 °F60.8 °F94 %29.67 in6.0 miSSE (150°)4.6 mph0.06 inRainRain
9:25 AM62.6 °F60.8 °F94 %29.67 in1.8 miSSE (150°)4.6 mph0.11 inRain-ThunderstormHeavy Rain
9:33 AM62.6 °F60.8 °F94 %29.67 in2.0 miSouth (170°)3.5 mph0.14 inRain-ThunderstormRain
9:45 AM62.6 °F60.8 °F94 %29.67 in2.0 miSE (140°)8.1 mph0.18 inRain-ThunderstormRain
9:53 AM63.0 °F61.0 °F93 %29.64 in2.0 miSE (140°)8.1 mph0.21 inRain-ThunderstormRain
10:04 AM62.6 °F60.8 °F94 %29.65 in2.5 miSSE (150°)8.1 mph0.04 inRainRain
10:07 AM62.6 °F60.8 °F94 %29.65 in1.8 miSE (140°)11.5 mph0.09 inRainHeavy Rain
10:17 AM62.6 °F60.8 °F94 %29.65 in2.0 miSE (140°)9.2 mph0.13 inRain-ThunderstormThunderstorms and Rain
10:27 AM62.6 °F60.8 °F94 %29.65 in1.2 miSE (140°)9.2 mph0.23 inRain-ThunderstormHeavy Thunderstorms and Rain
10:53 AM62.1 °F61.0 °F96 %29.65 in1.0 miSE (130°)8.1 mph0.51 inRain-ThunderstormHeavy Thunderstorms and Rain
11:01 AM62.6 °F60.8 °F94 %29.66 in2.0 miSE (140°)12.7 mph0.02 inRain-ThunderstormThunderstorms and Rain
11:53 AM62.6 °F60.8 °F94 %29.65 in3.0 miSouth (180°)6.9 mphRainRain
12:53 PM62.6 °F60.8 °F94 %29.63 in4.0 miSSE (160°)5.8 mphRainRain
2:25 PM64.4 °F62.6 °F94 %29.61 in3.0 miSouth (190°)9.2 mphRainRain
2:53 PM64.4 °F62.6 °F94 %29.60 in5.0 miSouth (190°)8.1 mphRainRain
3:50 PM64.4 °F62.6 °F94 %29.60 in5.0 miWest (260°)6.9 mph26.5 mphRainLight Rain
5:53 PM48.2 °F44.6 °F87 %29.71 in10.0 miWest (280°)13.8 mphRainLight Rain
6:53 PM46.4 °F41.0 °F81 %29.74 in10.0 miWest (270°)13.8 mph23.0 mphOvercast
7:52 PM46.4 °F39.2 °F76 %29.72 in10.0 miWNW (290°)18.4 mph25.3 mphOvercast
8:52 PM46.4 °F37.4 °F71 %29.75 in10.0 miWest (280°)16.1 mph20.7 mphOvercast
Hourly data recorded from KCPS, located miles away from St. Louis - Memorial Plaza, Missouri







STORIES FROM OUR PARTNERS